Location: Unspecified
(0.0000°N, 0.0000°E)
Time: 00:31:11
(UTC+00:00)

Hubble Space Telescope - Pass Details

Date: 25 June 2017
Orbit: 538 x 542 km, 28.5° (Epoch: 19 August)

Event Time Altitude Azimuth Distance (km) Brightness Sun altitude
Exits shadow 03:23:16 12° 43° (NE) 1,686 4.0 -36.0°
Drops below altitude 10° 03:23:32 10° 44° (NE) 1,784 4.1 -36.0°
Sets 03:25:51 0° 50° (NE) 2,674 5.3 -35.5°
